Location: Dodgeville, WI 53533, USA
(43.0344°N, 90.0900°W)
Time: 15:09:52
(UTC-06:00)

Envisat - Visible Passes

Search period start: 14 December 2018 00:00
Search period end: 24 December 2018 00:00
Orbit: 764 x 766 km, 98.2° (Epoch: 14 December)

Date Brightness Start Highest point End Pass type
(mag) Time Alt. Az. Time Alt. Az. Time Alt. Az.
14 Dec 3.2 18:16:34 10° SE 18:21:24 47° ENE 18:26:16 10° N visible
14 Dec 5.2 19:56:48 10° SW 20:00:39 22° W 20:04:31 10° NW visible
15 Dec 6.0 06:25:53 10° NE 06:28:45 15° E 06:31:36 10° SE visible
15 Dec 4.0 17:41:02 10° ESE 17:44:56 23° ENE 17:48:52 10° NNE visible
15 Dec 3.9 19:18:47 10° S 19:23:40 46° W 19:28:34 10° NNW visible
16 Dec 4.7 17:07:12 10° ENE 17:08:41 11° ENE 17:10:11 10° NE visible
16 Dec 2.8 18:41:48 10° SSE 18:46:52 81° ENE 18:51:58 10° N visible
16 Dec 5.9 20:24:31 10° WSW 20:26:30 12° W 20:28:29 10° WNW visible
17 Dec 5.5 06:50:20 10° NE 06:54:34 26° E 06:58:45 10° SSE visible
17 Dec 3.4 18:05:38 10° SE 18:10:16 38° ENE 18:14:56 10° N visible
17 Dec 4.9 19:45:05 10° SSW 19:49:21 27° W 19:53:39 10° NW visible
18 Dec 6.2 06:15:42 10° ENE 06:17:24 12° E 06:19:07 10° ESE visible
18 Dec 4.3 17:30:25 10° ESE 17:33:52 19° ENE 17:37:20 10° NNE visible
18 Dec 3.5 19:07:26 10° S 19:12:25 59° W 19:17:27 10° NNW visible
19 Dec 2.9 18:30:41 10° SSE 18:35:41 64° ENE 18:40:44 10° N visible
19 Dec 5.6 20:12:10 10° SW 20:15:10 16° W 20:18:10 10° NW visible
20 Dec 5.8 06:39:29 10° NE 06:43:16 21° E 06:47:01 10° SE visible
20 Dec 3.7 17:54:46 10° SE 17:59:09 30° ENE 18:03:34 10° N visible
20 Dec 4.5 19:33:31 10° SSW 19:38:05 34° W 19:42:41 10° NNW visible
21 Dec 4.5 17:19:58 10° E 17:22:49 15° ENE 17:25:40 10° NNE visible
21 Dec 3.1 18:56:09 10° S 19:01:13 75° WSW 19:06:19 10° NNW visible
22 Dec 3.1 18:19:38 10° SE 18:24:32 51° ENE 18:29:27 10° N visible
22 Dec 5.4 20:00:12 10° SW 20:03:50 20° W 20:07:31 10° NW visible
23 Dec 5.9 06:28:47 10° NE 06:31:57 16° E 06:35:06 10° SE visible
23 Dec 3.9 17:43:59 10° ESE 17:48:03 25° ENE 17:52:08 10° NNE visible
23 Dec 4.1 19:22:02 10° S 19:26:49 42° W 19:31:40 10° NNW visible
